Vorticity
6 4 3 4 4 3 8 11 10 7 6 4 5 5 4 4 4 4 4 4 4 4 4 4 5 5 6 6 6 5 4 4 5
5 5 3 3 3 3 7 11 9 6 5 5 5 4 4 4 4 4 4 4 4 3 4 4 4 5 6 7 5 5 5 4 5
8 5 3 4 3 3 6 10 8 5 5 6 5 4 4 4 4 4 4 4 4 4 4 5 5 5 5 7 5 5 5 5 4
4 5 5 5 3 3 5 9 8 5 5 6 5 5 4 4 4 3 4 4 4 4 4 4 5 4 5 6 5 6 7 5 4
4 6 4 5 3 3 4 8 7 5 6 6 6 5 4 4 4 4 4 5 4 4 4 4 4 4 5 7 6 6 7 6 3
1 6 3 5 4 2 4 6 7 5 6 7 6 5 5 5 4 5 5 5 5 4 4 5 5 5 5 6 6 8 6 5 5
5 2 3 5 5 2 3 5 6 6 6 6 5 5 5 5 5 5 5 5 5 5 4 5 5 5 5 6 6 6 5 4 5
4 3 4 4 5 1 5 5 7 5 5 5 6 5 5 6 6 6 6 5 5 5 5 5 6 5 5 5 6 6 6 4 5
-1 5 4 4 7 3 4 6 6 5 5 5 5 6 6 6 6 7 6 5 5 6 5 5 6 5 5 5 6 6 5 5 5
7 2 5 4 7 4 4 5 6 5 5 5 4 5 6 6 6 6 6 6 6 5 5 5 5 5 5 5 5 5 5 6 6
8 6 4 3 6 6 5 4 6 5 4 4 5 5 6 7 6 6 7 7 6 5 5 5 5 5 5 5 5 5 5 6 6
0 6 5 3 6 8 6 4 2 4 3 3 5 6 6 7 7 7 6 7 6 6 4 6 5 4 4 4 5 4 5 9 5
9 -11 3 2 6 9 6 5 4 4 4 4 5 6 6 6 6 5 5 4 6 7 5 6 5 4 4 5 4 4 5 5 6
3 24 3 -0 2 6 6 6 3 4 4 4 4 5 6 6 5 5 4 4 5 4 3 4 4 4 4 4 6 6 9 6 5
20 -7 6 -2 -14 7 7 5 2 3 3 3 3 4 4 5 5 5 4 4 5 4 5 5 5 5 7 6 5 6 6 5 5
11 12 -1 21 0 32 1 4 3 2 2 2 3 4 5 6 6 6 6 4 4 10 5 8 10 8 7 8 6 8 8 6 5
26 9 3 -8 18 16 4 6 3 2 2 2 2 4 4 6 6 5 5 5 0 10 11 0 3 11 7 11 10 7 6 9 7
-1 23 6 8 -2 -13 24 4 3 2 2 3 2 3 4 7 4 6 5 3 9 4 4 7 2 9 10 11 8 1 1 4 3
40 18 8 11 13 25 27 8 5 3 3 3 1 4 6 4 6 6 9 6 -0 7 0 6 -3 9 2 7 3 4 18 19 22
43 26 5 12 37 40 8 -0 7 4 3 3 2 4 2 6 7 10 3 10 12 7 0 -2 6 5 1 23 -1 10 -4 2 17
Height
3168 3170 3170 3172 3172 3172 3172 3172 3173 3173 3174 3174 3175 3174 3175 3175 3177 3177 3178 3177 3177 3177 3176 3175 3174 3174 3173 3172 3171 3170 3169 3168 3168
3167 3168 3169 3170 3171 3172 3172 3172 3173 3173 3174 3175 3175 3175 3176 3176 3177 3177 3178 3177 3177 3176 3176 3175 3175 3174 3173 3172 3171 3170 3170 3169 3168
3165 3167 3168 3168 3169 3171 3171 3172 3172 3173 3174 3175 3176 3176 3176 3176 3177 3177 3177 3177 3177 3176 3175 3175 3175 3174 3173 3172 3171 3170 3169 3168 3168
3163 3165 3166 3168 3168 3169 3170 3171 3172 3173 3174 3175 3176 3176 3176 3177 3177 3177 3177 3177 3176 3176 3175 3174 3174 3173 3172 3171 3170 3169 3168 3167 3167
3161 3163 3164 3165 3168 3168 3169 3170 3171 3172 3173 3174 3175 3175 3176 3176 3176 3177 3177 3177 3177 3176 3175 3174 3173 3173 3172 3170 3169 3168 3167 3167 3166
3158 3160 3162 3163 3165 3167 3167 3168 3169 3170 3172 3173 3173 3174 3175 3175 3175 3175 3176 3176 3175 3175 3174 3174 3173 3172 3171 3170 3168 3166 3166 3165 3164
3156 3157 3159 3161 3163 3164 3165 3166 3167 3169 3170 3171 3172 3172 3173 3173 3174 3173 3174 3174 3174 3174 3173 3172 3172 3171 3170 3169 3167 3166 3165 3163 3162
3152 3153 3155 3158 3159 3160 3162 3164 3165 3166 3168 3169 3171 3171 3171 3171 3171 3171 3172 3172 3172 3172 3171 3171 3170 3169 3168 3167 3167 3165 3164 3162 3161
3150 3150 3153 3154 3156 3157 3159 3161 3162 3164 3165 3166 3167 3169 3169 3169 3169 3170 3170 3170 3170 3170 3170 3169 3168 3168 3167 3165 3165 3164 3163 3161 3160
3146 3147 3149 3151 3152 3153 3156 3157 3159 3160 3162 3163 3164 3165 3166 3166 3167 3167 3167 3168 3168 3168 3167 3167 3167 3165 3165 3164 3163 3162 3161 3160 3159
3141 3142 3144 3146 3148 3149 3152 3154 3155 3157 3158 3159 3161 3162 3163 3164 3164 3164 3164 3165 3165 3165 3164 3164 3164 3163 3163 3162 3161 3160 3160 3158 3157
3135 3136 3137 3141 3143 3145 3147 3149 3150 3152 3154 3155 3157 3158 3159 3161 3161 3161 3162 3162 3162 3162 3161 3161 3161 3161 3159 3159 3158 3157 3157 3156 3154
3127 3128 3132 3134 3136 3138 3141 3144 3146 3148 3150 3152 3153 3154 3155 3156 3157 3158 3158 3158 3158 3158 3158 3158 3157 3157 3156 3156 3155 3154 3154 3152 3151
3118 3119 3121 3126 3128 3130 3135 3139 3141 3144 3146 3148 3148 3149 3150 3152 3153 3154 3154 3154 3155 3155 3155 3155 3155 3155 3154 3151 3151 3151 3150 3149 3148
3109 3112 3114 3110 3116 3120 3126 3132 3137 3140 3142 3142 3143 3144 3145 3146 3148 3149 3149 3149 3149 3150 3150 3151 3150 3150 3150 3148 3146 3146 3145 3144 3144
3100 3103 3106 3106 3106 3114 3117 3124 3131 3134 3137 3135 3137 3138 3139 3140 3143 3144 3145 3145 3145 3145 3145 3145 3145 3145 3145 3144 3143 3142 3141 3140 3139
3090 3094 3098 3100 3097 3101 3110 3116 3123 3127 3130 3130 3131 3131 3133 3135 3137 3138 3139 3139 3139 3139 3139 3140 3140 3140 3140 3138 3138 3137 3136 3136 3135
3080 3083 3088 3092 3092 3095 3099 3108 3116 3120 3123 3124 3125 3124 3126 3129 3129 3132 3132 3132 3133 3133 3134 3134 3134 3135 3134 3133 3133 3131 3130 3129 3129
3065 3072 3078 3083 3087 3086 3090 3099 3108 3112 3115 3116 3117 3118 3120 3121 3122 3124 3125 3126 3126 3126 3127 3127 3128 3127 3128 3127 3127 3126 3123 3124 3122
3057 3064 3070 3073 3073 3078 3086 3093 3099 3104 3107 3109 3111 3111 3112 3112 3113 3115 3117 3118 3119 3120 3119 3120 3120 3120 3120 3119 3119 3119 3118 3117 3117